Weather in Maturin

Venezuela     9°44′49″N   63°10′03″W
temp.,
°C
wind,
m/s
gust,
m/s
humid.,
%
clouds,
%
prec.,
mm/h
press.,
hPa
HPBL,
m
4 march, thu
thu423:00+22ne27840 0.0 1015240
02:00+21ne23860 0.0 1014101
05:00+20ne22894 0.0 101360
08:00+25ne26723 0.0 1015423
11:00+31ene345323 0.0 10151328
14:00+30ne456123 2.6 10111072
17:00+28ene57721 1.0 1010863
20:00+23ne39931 1.9 1012383
5 march, fri
fri523:00+22ene27962 0.0 1014310
02:00+21ne129916 0.2 101188
05:00+21n129949 1.7 101259
08:00+24ene258958 3.7 1013427
11:00+28e467167 2.3 10141021
14:00+29e346872 6.6 10101021
17:00+27ne467854 4.4 1009586
20:00+23ne389571 4.7 1011349
6 march, sat
sat623:00+22ne399611 0.0 1013364
02:00+21ne24989 0.0 1011152
05:00+21ne239850 0.1 1011121
08:00+24ene498737 0.4 1013626
11:00+29e576444 0.6 10141169
14:00+29ene576939 3.0 10101051
17:00+28ne57743 1.1 1009979
20:00+24ne39932 2.5 1011373
7 march, sun
sun723:00+22ene289710 0.1 1013296
02:00+23ene289638 1.0 1012455
05:00+22ne289881 3.1 1012335
08:00+25e388752 3.4 1014537
11:00+30e585919 0.6 10141289
14:00+29ene576652 1.9 1011959
17:00+30ene675944 0.3 10101438
20:00+24ne4108026 0.3 1012539
8 march, mon
mon823:00+22ne289111 0.0 1014345
02:00+21ne25989 0.1 1013175
05:00+22ne269648 0.3 1013236
08:00+24ene388644 0.7 1015558
11:00+29ene576828 0.6 10151098
14:00+31ene585653 1.8 10121347
17:00+29ene586326 0.3 10101305
20:00+24ne4118313 0.4 1013638